Wind_Speed
3 4 3 3 3 4 2 3 1 2 3 2 0 1 2 2 1 2 2 1 1 1 1 1 2 1 2 3 5 5 2 2 3 2 1 3 5 3 5 6 7 7 7 8 8 8 10 11 11 11 11 11 11 11 11 10 10 9 9 9 9 9 10 10 10 10 11 10 9 9 9 9 9 9 9 9 9 9 9 10 9 9 9 11 11 12 11 10 10 11 11 11 11 11 10 11 11
3 3 1 2 1 1 1 2 2 2 4 2 1 1 1 0 1 4 5 4 2 2 2 3 5 4 4 5 6 4 2 1 1 2 0 6 6 5 7 7 7 7 8 8 9 10 11 13 12 12 11 11 11 11 11 11 11 10 10 9 9 8 9 9 9 9 9 10 10 10 10 10 10 10 9 8 8 8 8 9 9 9 10 10 11 12 12 11 11 11 12 12 12 12 12 11 11
3 2 1 2 1 2 1 2 1 0 3 1 2 2 1 2 4 5 6 5 5 6 3 2 3 3 3 2 1 1 1 1 1 2 1 7 6 4 8 8 8 8 7 7 8 10 12 13 13 13 12 12 12 11 11 12 12 11 11 10 9 9 8 8 8 8 8 9 11 11 11 11 11 10 10 8 8 8 8 8 8 9 10 10 11 11 12 13 12 11 11 12 11 12 13 13 13
2 2 0 1 1 2 3 3 1 2 2 2 2 3 2 4 5 4 4 5 7 6 2 1 1 1 1 1 1 1 2 1 1 3 2 5 6 5 9 9 9 8 7 7 8 10 12 12 12 12 12 12 12 12 11 11 11 11 11 11 10 9 9 8 7 7 7 8 9 10 11 11 10 10 10 10 10 10 9 9 8 9 10 10 10 11 12 13 13 13 13 12 11 11 12 13 14
2 1 1 2 1 0 2 2 2 3 2 3 1 3 4 5 6 5 5 6 5 3 1 2 1 1 0 1 1 1 2 2 2 5 5 6 8 9 10 10 10 9 9 9 9 10 12 11 11 11 12 12 12 12 12 12 12 12 11 11 11 10 9 9 8 8 7 7 7 7 8 9 9 9 9 9 9 10 10 9 9 9 10 10 10 11 11 12 12 13 14 14 14 12 12 13 15
4 4 3 3 2 1 2 2 2 2 3 4 2 3 5 6 7 8 7 4 3 3 3 2 2 2 0 1 1 1 1 3 5 7 8 9 11 11 12 11 11 11 11 10 10 12 12 11 11 12 12 13 13 13 13 13 13 12 12 11 11 11 10 10 9 9 8 7 7 6 6 6 7 8 8 8 8 8 8 8 10 10 10 11 11 11 11 11 12 12 13 13 14 13 13 13 13
5 3 3 3 1 2 2 2 3 2 3 4 2 4 8 7 7 9 7 4 2 3 3 3 3 4 1 1 1 0 1 3 6 8 11 13 13 13 12 11 11 12 11 11 11 12 13 11 11 12 12 12 12 13 13 13 13 13 13 12 11 11 10 10 10 9 9 8 7 7 6 6 6 7 8 8 7 7 6 6 9 9 10 11 11 12 11 11 11 11 12 12 13 13 13 13 13
4 1 1 2 1 3 3 2 3 2 1 2 2 3 8 9 8 9 9 6 2 3 3 4 3 2 1 0 1 0 1 6 8 12 15 16 15 13 12 11 11 12 12 12 11 11 12 12 11 11 11 11 11 11 12 12 12 12 12 12 12 11 11 10 10 9 9 8 8 7 7 7 7 7 8 8 7 7 7 7 8 8 9 10 10 10 10 10 11 11 11 11 12 13 13 13 13
4 2 0 2 1 2 2 0 1 2 2 3 3 3 5 8 8 8 10 5 1 3 3 5 3 1 2 2 1 2 2 11 14 15 17 16 15 13 12 11 11 13 13 13 12 11 12 12 11 11 11 11 11 11 11 11 11 11 11 12 12 12 11 11 11 10 10 9 9 8 8 7 7 7 8 8 8 8 8 9 9 9 9 9 8 9 10 10 11 12 11 12 12 13 13 14 14
4 3 1 2 2 2 2 1 1 2 4 4 4 4 5 7 7 6 8 5 2 5 4 3 1 1 4 4 1 1 6 14 16 17 16 16 14 13 12 12 12 13 13 13 12 11 11 12 12 11 11 11 11 11 11 11 11 11 11 11 11 11 11 12 11 11 11 10 9 9 9 8 8 8 8 8 9 9 9 9 9 10 11 10 10 11 11 12 12 13 14 14 15 14 14 15 15
2 3 2 3 2 1 2 3 2 3 3 3 3 4 6 7 6 4 4 3 2 4 4 2 1 3 4 2 1 1 10 16 17 18 16 15 14 13 13 13 12 13 13 13 12 12 12 12 12 12 11 11 11 12 12 12 12 12 11 11 11 11 11 11 11 11 11 10 10 10 9 9 9 9 9 9 9 10 10 10 10 10 11 12 12 13 13 13 13 14 15 16 16 16 16 16 16
1 2 3 3 2 2 2 2 3 3 4 2 3 3 5 7 6 5 6 4 3 4 4 5 3 5 4 2 1 3 12 18 18 19 17 15 15 13 12 12 12 12 13 12 12 12 13 12 12 12 12 12 11 12 12 12 13 13 13 13 12 12 11 11 11 10 11 11 10 10 10 10 10 10 10 10 10 10 10 10 11 11 12 13 13 14 14 14 15 15 15 16 16 16 17 17 18
2 1 4 2 2 1 1 1 3 2 3 3 4 2 6 8 5 7 7 4 6 6 5 7 4 4 3 2 1 2 10 19 19 18 17 16 15 13 13 13 13 12 12 12 12 12 13 13 13 13 12 12 12 12 13 13 13 13 13 13 13 13 13 12 12 11 11 11 11 11 11 11 11 10 10 11 11 11 11 11 11 11 12 13 13 14 15 15 16 16 16 16 16 17 17 18 19
2 3 4 2 1 1 2 1 2 1 4 4 2 3 4 4 3 5 8 5 8 6 2 6 6 2 2 2 1 2 11 22 21 18 18 17 15 14 14 13 13 12 12 11 12 12 13 13 13 13 12 12 12 13 13 14 13 13 14 13 13 13 13 13 13 13 12 12 12 12 12 12 13 13 13 13 12 12 12 12 12 12 13 13 14 14 15 16 16 17 17 17 18 18 18 19 20
3 2 4 3 2 1 2 1 1 3 4 3 3 4 4 0 1 4 6 6 6 3 1 4 6 2 3 5 3 5 17 26 23 20 19 18 17 15 14 15 14 13 12 11 12 12 12 13 13 13 12 12 13 13 13 13 14 13 14 14 14 14 13 13 13 13 13 13 14 14 14 14 14 14 15 15 15 15 14 14 13 13 13 14 14 15 15 15 16 17 18 19 19 19 20 20 20
2 3 4 3 1 1 3 2 2 2 4 3 1 3 4 1 1 3 3 2 2 1 1 3 4 1 3 6 2 8 25 29 25 22 21 20 18 16 15 15 14 13 12 11 12 12 12 12 12 12 12 12 12 13 13 14 14 14 14 14 14 14 14 14 14 14 14 14 15 15 15 16 16 16 16 17 17 18 17 17 16 15 15 14 14 15 15 15 16 17 18 19 19 20 21 21 21
2 3 4 2 2 2 4 4 4 3 4 3 2 4 6 2 1 1 1 3 3 1 2 3 2 1 2 4 4 13 31 30 26 24 22 21 19 17 15 15 14 13 12 11 11 11 11 11 11 11 11 12 12 12 13 14 14 14 14 14 14 15 15 14 14 14 14 15 15 15 16 16 17 18 18 19 19 19 19 19 19 19 18 17 16 16 15 16 16 16 17 18 19 20 21 22 22
3 3 3 1 3 3 5 7 6 4 1 3 4 5 6 4 2 2 1 2 3 1 3 2 3 3 3 5 3 21 32 30 28 26 23 21 19 17 16 15 14 13 12 11 10 10 10 10 10 10 10 10 10 11 11 12 13 13 13 14 14 14 14 14 14 15 15 16 16 17 17 18 18 18 19 19 20 20 20 21 21 21 21 20 20 19 18 17 16 16 17 18 18 19 20 21 22
3 3 2 2 5 5 5 6 5 3 1 3 5 4 4 5 5 4 3 2 2 3 4 2 5 5 1 2 13 26 31 30 29 27 24 22 19 18 17 15 14 13 12 11 10 9 8 9 8 8 9 8 8 9 9 10 11 12 13 13 14 14 14 14 15 15 16 16 17 17 18 19 19 19 20 20 20 20 20 21 21 21 22 22 21 21 20 19 18 17 17 18 18 19 20 21 22
1 4 2 4 5 4 4 5 6 4 3 4 5 3 2 4 5 4 3 2 3 7 7 4 9 10 5 6 17 25 27 27 26 25 24 21 20 20 20 18 17 16 14 12 11 9 7 8 8 8 8 7 7 7 8 9 10 10 11 12 13 13 13 14 14 15 15 16 17 17 18 18 18 19 19 20 20 21 21 22 22 22 23 23 23 22 22 21 21 20 19 19 19 20 20 21 22
1 3 3 4 3 2 4 6 6 4 4 5 4 3 2 3 3 3 4 3 5 9 10 12 14 12 9 7 15 23 24 24 23 23 22 21 21 21 21 20 18 16 15 13 11 9 8 7 7 7 6 6 6 7 8 8 9 9 10 11 11 12 12 12 12 13 14 15 15 16 17 17 18 18 18 19 20 21 22 22 23 24 24 25 25 25 25 24 23 22 22 21 21 21 21 22 22
1 1 3 4 3 1 4 5 4 4 4 4 5 4 4 3 2 4 8 8 7 6 9 13 12 9 12 13 17 20 20 21 22 22 22 23 22 21 21 19 18 16 14 13 11 9 8 7 7 6 5 5 6 7 8 8 8 9 10 11 10 11 11 12 12 13 13 14 15 15 15 16 16 17 17 18 18 19 21 22 23 24 25 26 26 27 26 26 25 24 23 23 22 22 22 23 23
0 2 3 3 4 2 2 3 3 4 6 5 5 4 3 4 4 4 9 14 7 1 4 8 7 11 17 18 17 16 17 19 22 25 26 26 25 24 24 22 20 18 16 13 11 9 8 7 5 4 3 4 5 6 6 6 8 9 9 9 10 11 11 12 12 13 14 14 14 15 15 16 17 17 18 18 19 19 20 21 21 22 23 24 26 27 27 27 27 26 25 25 24 24 24 24 24
3 1 3 2 3 5 2 2 3 4 5 4 3 2 4 6 4 0 9 17 8 1 1 2 7 15 18 15 13 15 19 21 24 26 27 27 27 26 25 23 20 18 17 14 12 10 8 7 5 3 2 2 3 4 4 5 6 7 8 8 9 10 11 11 12 12 13 13 14 15 15 16 17 18 19 20 21 21 21 21 20 21 21 22 23 24 26 27 27 27 27 27 26 26 25 25 25
3 2 3 1 2 6 3 1 3 4 3 1 3 3 4 6 2 2 12 16 9 4 3 5 8 13 14 12 12 14 16 19 21 23 25 27 27 25 24 23 21 19 18 16 14 11 9 8 6 4 2 1 1 2 3 4 5 6 7 7 8 9 10 11 11 11 12 13 14 14 16 16 17 18 19 20 21 22 23 23 23 23 22 22 22 22 23 24 25 27 27 28 28 27 26 25 24
2 4 3 2 3 5 3 2 2 3 2 2 3 6 5 3 1 7 14 10 6 5 5 7 9 10 11 11 12 13 13 17 22 23 24 25 25 25 24 24 22 20 19 17 15 13 11 9 7 5 3 1 0 1 2 3 4 5 6 7 8 8 9 10 10 11 12 13 13 14 15 16 17 18 19 20 20 21 22 23 24 24 24 24 23 22 21 21 22 24 26 28 29 29 28 27 25
3 4 4 3 3 5 3 3 2 1 2 4 5 7 6 3 2 6 7 1 5 7 5 6 9 10 11 10 12 14 15 19 24 23 23 23 25 26 26 25 23 21 20 18 16 14 12 11 9 7 5 2 1 0 1 2 3 4 5 6 7 8 8 9 10 10 11 12 12 13 14 15 16 17 18 20 20 21 22 23 23 24 24 25 24 24 22 21 20 21 22 24 26 28 29 30 28
2 2 2 4 4 4 2 3 4 1 2 6 7 5 4 3 2 10 5 2 5 7 6 7 9 9 9 10 10 11 14 19 23 23 24 26 27 28 28 28 25 23 21 19 17 15 14 13 11 9 6 4 2 2 1 2 2 3 4 5 6 7 8 8 9 9 10 10 11 12 14 15 16 17 18 20 21 22 22 23 23 24 24 24 24 24 24 23 22 21 21 21 22 24 26 28 29
1 2 2 6 6 3 3 2 3 1 2 6 6 3 5 4 11 12 2 3 3 6 7 6 8 8 7 9 8 8 12 17 21 24 26 27 28 29 29 28 27 25 22 19 18 17 16 15 13 10 7 5 4 3 2 2 1 2 3 4 4 6 7 7 8 8 9 9 10 12 13 14 15 16 18 19 20 21 22 22 23 23 23 24 24 24 25 25 25 24 24 23 22 23 24 26 27
1 2 1 4 6 4 2 2 1 2 3 4 4 4 7 9 16 11 3 5 5 5 7 6 6 6 6 8 7 7 11 16 21 25 26 26 28 30 29 28 27 25 23 20 20 19 18 17 14 11 9 7 5 4 3 2 1 1 1 3 4 5 7 7 8 8 9 9 10 11 12 13 14 15 17 18 19 20 21 22 22 22 22 23 23 23 24 24 25 26 26 25 25 23 23 24 26
0 1 1 2 2 4 5 1 2 2 1 3 3 4 9 9 12 9 4 6 7 7 8 6 6 6 6 8 8 7 10 17 21 23 25 27 30 30 29 29 27 25 24 23 21 20 20 18 15 12 10 8 6 5 4 3 2 1 1 2 3 5 6 7 7 8 8 8 9 10 12 13 14 14 16 17 19 19 20 21 21 22 22 23 23 23 23 23 24 25 26 26 26 25 23 24 25
2 1 3 2 1 4 8 2 5 3 1 1 3 3 10 11 9 4 3 5 6 8 8 7 8 8 8 7 8 8 9 15 18 21 25 28 30 31 31 30 29 27 25 24 22 21 21 19 16 14 11 9 7 6 4 3 2 1 1 3 4 5 6 6 7 7 8 8 9 10 12 13 14 14 16 18 19 19 20 21 22 22 23 23 23 23 23 22 23 23 24 25 26 26 27 27 26
3 1 3 3 2 3 6 2 3 2 1 1 4 3 7 9 6 2 3 6 6 8 9 9 10 10 9 7 8 9 8 10 13 20 27 28 29 31 31 30 30 29 26 25 23 22 22 20 17 14 11 10 8 6 4 3 2 1 2 3 4 5 6 6 6 6 7 7 9 10 11 13 14 15 16 18 19 20 21 21 22 22 23 23 23 23 23 22 22 23 24 24 23 24 24 26 28
3 2 2 4 3 3 4 3 2 1 2 4 4 5 10 13 9 3 4 6 7 9 11 11 10 9 8 8 9 10 10 9 11 20 27 28 28 29 30 30 30 29 26 25 24 23 22 21 18 14 12 11 9 6 4 4 3 2 3 3 4 5 6 6 6 6 7 7 9 10 12 13 15 16 17 19 19 21 21 21 22 22 22 22 22 23 23 23 23 23 24 25 24 23 21 23 26
3 3 3 4 3 3 4 5 2 2 1 4 4 7 14 17 17 11 6 7 9 12 12 10 11 10 9 9 10 10 11 11 13 20 27 28 28 29 31 30 30 30 28 26 24 23 22 21 17 14 13 12 9 7 5 4 4 4 4 4 5 5 6 7 6 7 7 8 9 11 12 14 16 17 18 19 20 21 22 22 22 22 22 22 22 23 23 24 25 24 25 25 25 24 23 24 26
6 5 4 4 5 5 6 5 3 1 1 7 8 10 13 16 19 17 7 7 10 14 11 9 10 9 8 9 10 11 12 13 15 20 25 28 29 30 32 31 30 31 29 27 26 24 23 21 18 16 15 13 11 8 6 6 5 5 5 5 5 6 7 7 6 8 8 8 10 11 13 15 17 18 19 20 21 22 22 23 23 23 23 23 24 23 23 24 24 25 25 25 26 25 24 26 26
4 4 4 5 5 6 6 3 3 1 1 9 10 9 12 15 18 18 10 4 10 15 12 11 11 9 9 10 12 13 14 12 13 19 24 28 30 31 32 31 31 30 29 28 27 25 25 22 19 18 17 15 13 10 8 7 6 6 6 6 6 7 7 7 7 7 8 9 10 12 14 16 17 18 19 20 21 22 22 23 24 24 24 24 25 24 24 24 24 24 25 25 24 23 22 23 23
4 4 4 4 4 7 6 2 4 2 2 6 7 7 13 16 17 17 10 7 15 17 13 14 15 11 8 11 14 14 12 8 9 15 22 27 30 31 32 32 32 32 31 29 27 27 26 23 20 19 19 18 15 11 9 8 7 6 6 6 8 9 8 8 9 8 9 10 11 13 15 16 18 19 19 20 21 22 22 23 24 24 24 25 25 26 25 25 25 25 25 24 22 20 20 20 19
4 3 2 3 4 5 6 3 4 2 2 5 6 8 15 17 18 20 15 13 19 16 11 15 15 11 10 12 13 12 11 9 10 12 18 25 29 31 32 33 34 34 32 31 29 28 28 24 22 20 20 19 16 12 10 8 7 6 7 7 8 10 9 9 10 10 10 12 12 13 15 17 18 19 20 20 21 22 22 23 24 24 25 25 26 27 27 27 27 26 24 23 21 20 18 17 14
2 3 2 4 3 1 4 4 3 2 2 4 7 10 14 15 15 18 14 10 15 14 10 13 12 11 12 13 11 12 13 13 12 12 14 21 26 29 32 33 34 34 32 32 31 30 29 26 23 22 21 20 16 13 10 7 7 7 8 8 9 10 10 10 11 11 11 13 14 14 16 17 18 19 20 21 22 23 24 25 25 26 26 26 26 27 28 28 27 26 25 21 19 19 18 15 13
3 5 6 6 4 5 6 3 4 3 2 3 6 10 10 7 8 11 5 3 8 9 9 12 10 10 10 9 10 13 14 14 14 14 14 17 23 29 32 32 33 34 34 35 34 32 30 27 24 23 22 20 17 14 11 8 8 8 8 9 9 10 11 11 11 12 13 14 16 16 16 17 18 19 19 21 23 24 25 26 27 27 27 27 27 28 29 30 28 27 25 21 18 19 21 19 15
4 5 10 9 6 7 5 3 4 4 3 2 4 7 7 1 3 8 4 4 6 4 6 12 9 7 8 8 11 12 12 11 13 14 15 18 23 27 29 30 33 35 36 36 34 32 30 27 24 23 22 20 17 14 11 9 9 9 9 9 10 10 13 13 12 13 15 16 17 18 18 18 18 19 20 22 23 24 25 26 26 27 27 27 27 28 29 30 30 28 25 22 19 18 20 23 20
3 4 7 7 5 4 3 1 2 0 2 3 3 2 8 2 1 7 4 4 9 7 9 14 9 6 8 10 10 9 9 10 11 13 14 17 21 24 26 32 36 36 37 36 34 32 29 26 24 23 22 20 18 15 12 10 9 9 10 10 10 10 13 15 14 14 16 17 18 19 19 18 19 20 21 22 23 24 26 26 27 27 27 28 28 28 30 30 29 28 26 22 21 19 18 22 24
4 3 4 6 6 5 5 3 2 3 1 4 0 2 8 8 5 8 6 5 11 12 14 16 11 7 9 10 10 9 10 10 10 12 14 16 21 26 30 34 37 36 36 37 36 34 30 26 24 23 21 20 18 16 13 11 10 10 10 10 11 11 13 15 15 16 17 18 19 19 20 20 20 21 22 23 24 25 26 27 28 28 28 29 29 30 31 30 28 27 25 23 22 22 19 22 25
4 3 6 5 5 5 4 4 3 2 3 4 4 4 5 10 5 2 2 4 11 13 15 16 13 8 8 9 10 10 9 10 11 13 14 15 22 29 33 34 34 35 36 38 38 34 30 27 24 23 21 20 19 17 14 12 11 11 10 10 12 12 13 15 16 17 18 18 19 20 20 21 21 22 23 24 25 26 27 28 29 30 30 31 31 32 33 32 31 29 27 24 23 23 22 22 25
3 6 6 4 4 4 3 3 2 1 1 7 8 7 5 10 4 3 2 3 10 11 12 13 11 9 6 7 9 8 7 8 10 11 12 16 24 30 31 31 32 34 37 38 37 34 30 27 24 23 22 20 19 18 15 12 11 11 11 11 12 13 13 15 16 18 18 18 19 21 21 21 23 24 25 26 26 27 27 28 30 31 31 32 32 33 34 33 33 31 29 26 25 25 24 23 26
6 6 5 5 4 4 3 1 2 1 4 8 8 12 10 8 3 5 4 5 8 9 8 9 9 9 7 8 7 7 7 7 8 9 9 13 21 26 28 30 32 34 36 37 37 35 31 27 25 24 22 20 20 18 15 13 12 11 11 11 12 13 13 14 16 18 18 18 20 21 22 23 24 26 26 27 27 28 29 30 31 32 32 34 33 33 34 33 33 31 30 28 26 26 26 25 27
5 4 3 3 4 3 4 3 3 1 6 4 3 8 9 9 7 4 6 7 7 9 9 9 10 10 8 7 6 7 7 7 7 7 7 10 14 19 24 28 30 32 35 36 37 36 32 27 25 24 22 21 20 18 15 13 12 11 11 11 12 13 13 14 16 18 18 18 20 22 23 25 27 28 28 29 29 29 30 32 32 33 33 34 35 34 34 34 33 32 30 30 28 27 27 27 28
3 3 4 2 4 3 3 3 1 3 7 3 2 3 5 12 11 7 8 10 10 10 9 9 9 9 8 6 6 6 5 5 6 7 8 9 10 14 21 26 28 32 35 36 36 36 33 28 26 25 23 22 20 18 15 13 12 12 12 12 12 12 13 14 15 17 17 18 19 21 23 25 27 29 29 29 31 30 31 33 33 34 35 35 35 35 35 35 32 31 31 30 30 29 28 28 29
5 5 4 3 1 0 3 4 2 5 7 3 3 3 4 9 9 11 17 18 15 11 10 10 8 8 7 5 4 4 5 6 7 7 9 9 11 15 21 26 29 32 34 36 36 36 34 29 27 25 23 22 20 17 14 14 13 13 12 12 11 11 13 13 14 16 16 17 19 21 23 25 26 29 29 30 31 31 32 33 33 34 34 35 35 35 35 33 31 31 31 31 31 30 29 30 31
5 4 5 5 5 4 5 4 4 7 6 4 1 2 4 5 4 8 14 15 11 9 10 9 7 7 5 3 4 4 5 6 6 7 9 10 12 17 21 25 28 31 33 35 36 36 34 31 28 25 23 22 19 16 15 15 14 13 12 11 11 11 12 13 14 15 16 17 19 21 23 25 26 29 30 31 31 32 32 32 32 32 33 34 35 34 32 31 31 31 32 32 32 31 30 31 31
2 3 4 3 5 5 3 3 4 1 4 5 3 4 6 5 3 4 7 6 6 8 9 7 9 8 4 4 6 6 6 6 7 8 9 10 13 17 21 24 27 29 32 34 36 37 35 31 28 25 23 22 18 16 15 15 14 12 11 10 10 11 11 13 14 14 16 18 19 22 23 25 27 29 30 32 32 32 32 32 32 32 33 33 32 31 30 31 30 30 32 32 33 31 30 33 33
3 3 4 4 3 6 3 2 1 4 3 6 2 5 10 7 5 6 7 4 6 9 7 8 11 8 5 6 8 7 7 7 7 9 9 9 11 16 21 24 27 30 32 35 37 38 36 32 28 26 23 20 18 16 16 14 13 12 10 10 9 10 11 12 14 15 16 18 20 22 24 25 27 29 31 32 33 33 33 33 34 33 32 32 30 29 29 30 30 30 32 33 34 32 32 35 35
6 4 5 3 2 4 3 2 2 2 5 5 5 11 16 12 7 2 3 4 8 11 9 10 11 6 5 9 9 8 7 6 7 8 8 9 11 16 22 25 29 33 35 36 37 37 35 31 29 27 24 21 18 17 15 14 13 11 10 9 9 9 11 12 13 15 16 18 21 22 24 26 28 29 31 32 33 34 34 34 33 33 32 31 29 28 27 28 29 30 31 32 34 32 32 34 33
5 4 3 4 3 2 2 2 3 3 4 4 10 16 17 13 9 6 5 8 10 11 11 11 11 9 8 10 11 10 7 5 7 8 8 9 11 16 22 26 29 32 33 35 36 36 33 30 28 26 23 20 17 16 15 13 12 10 9 9 8 9 10 11 13 15 16 18 21 22 24 26 27 29 30 32 33 34 35 33 31 30 30 29 29 28 27 28 28 29 30 30 31 29 30 33 31
2 0 0 2 2 4 3 3 3 3 4 5 11 14 15 11 7 7 11 11 10 10 10 10 12 11 10 10 11 9 7 8 8 8 9 10 11 17 24 26 29 31 32 34 35 34 32 29 27 25 22 19 17 16 14 12 11 10 8 8 8 8 9 11 13 14 16 19 21 22 24 26 27 29 30 32 33 33 33 32 31 30 30 29 29 29 28 28 28 28 27 28 29 28 30 32 31
4 3 3 2 1 2 1 1 2 3 4 5 6 10 17 9 6 8 10 9 11 11 10 10 10 10 10 10 11 9 8 9 9 9 10 10 11 16 21 24 25 27 29 32 33 32 31 29 27 25 21 19 17 15 14 12 10 8 8 7 7 8 9 11 13 14 17 19 20 22 24 25 27 29 30 32 33 32 31 30 31 31 29 28 29 29 28 26 26 27 26 27 28 27 28 30 30
9 7 8 8 6 4 1 5 3 2 4 5 5 9 18 9 6 6 7 8 10 11 11 10 9 10 11 11 11 10 8 9 10 10 10 9 10 14 19 21 23 25 28 30 32 31 31 29 27 23 20 18 16 15 13 11 8 7 7 6 6 8 9 11 12 15 17 19 21 22 23 25 27 29 31 31 31 31 29 27 28 29 28 27 28 29 28 25 26 28 28 28 27 27 28 29 29
Wind_Direction
162 157 161 146 138 140 87 57 92 332 76 84 280 184 225 190 127 175 186 216 244 260 237 93 105 110 109 119 137 143 127 163 165 143 198 151 121 96 98 94 95 93 88 84 77 74 68 61 51 50 52 52 54 55 53 52 49 47 48 46 50 49 48 48 45 43 37 32 27 24 18 8 357 347 335 325 324 321 317 312 307 305 304 304 303 302 301 303 306 307 309 308 310 309 306 305 308
159 158 162 159 118 138 220 58 102 335 58 103 222 182 234 117 167 189 191 204 189 147 117 100 100 85 70 88 114 122 89 1 183 150 120 148 127 85 101 93 94 93 86 85 80 79 73 65 57 54 54 55 56 57 57 56 55 53 51 50 50 50 48 46 46 42 38 36 33 32 27 20 15 8 359 344 336 330 323 318 312 306 306 308 308 307 304 300 299 299 303 304 306 308 307 302 301
154 165 133 170 83 43 84 41 92 105 82 136 236 227 206 160 201 211 205 191 153 143 131 110 96 80 60 73 122 103 102 310 202 148 89 151 145 84 99 91 90 91 89 91 85 83 76 69 64 61 58 60 60 60 61 58 59 58 55 54 52 51 48 44 41 36 32 33 33 33 30 27 25 19 14 10 2 351 343 337 323 311 309 311 311 312 312 308 304 297 297 300 301 306 306 302 298
147 161 232 179 73 34 65 42 140 125 114 179 243 232 200 182 195 222 212 169 150 146 134 100 60 35 78 114 176 88 138 214 211 166 113 139 147 115 104 97 98 101 107 104 97 90 80 77 73 69 65 64 64 63 63 61 61 59 58 57 55 54 51 48 42 36 28 24 25 29 29 28 28 24 22 26 21 9 1 350 338 327 320 316 315 318 316 315 317 309 304 304 301 304 306 305 301
161 129 215 167 109 45 98 74 112 101 172 177 163 231 213 189 175 176 175 168 168 161 155 135 102 296 277 115 166 165 151 131 149 154 126 130 141 128 115 109 112 112 112 108 106 99 88 85 81 77 73 69 68 67 65 64 63 61 59 56 55 54 52 53 48 44 33 24 19 17 20 19 21 19 17 23 24 21 12 0 353 343 333 326 322 324 323 322 323 317 315 312 306 304 303 304 303
155 112 71 97 99 137 130 108 109 131 211 172 155 218 198 183 169 157 157 189 232 212 181 162 154 159 187 302 195 200 176 126 132 144 137 143 145 134 125 120 118 112 107 107 109 105 96 93 90 85 80 76 72 71 69 67 67 65 62 58 56 54 52 52 51 50 43 35 26 19 15 10 11 7 7 10 13 18 12 8 5 356 344 333 331 333 333 329 323 318 316 315 311 309 300 296 300
162 135 43 76 61 33 111 147 161 183 188 175 188 180 175 178 166 149 158 190 231 216 183 187 159 130 151 282 176 256 228 162 141 147 149 147 144 136 130 126 120 109 104 105 106 104 100 98 96 91 86 82 77 74 72 71 70 68 65 61 58 56 54 51 50 49 45 42 37 32 25 19 14 9 7 1 359 2 356 4 7 5 359 346 343 340 338 336 332 326 321 321 314 307 299 293 296
147 183 4 92 27 27 84 138 187 199 154 228 258 177 177 174 164 156 169 184 184 195 173 178 167 128 200 78 148 313 146 159 148 149 148 144 142 137 132 129 120 106 101 100 100 101 100 97 95 93 90 86 83 80 75 73 70 68 65 61 59 56 54 53 51 49 46 43 40 36 31 26 20 14 8 358 351 348 347 354 354 360 2 353 349 341 335 330 333 335 327 327 318 305 299 293 294
80 35 84 84 58 33 41 58 209 236 261 262 250 218 198 171 168 165 171 195 206 163 165 171 185 219 169 117 172 307 142 149 146 147 145 144 143 138 135 128 116 105 100 97 96 96 96 95 92 91 89 86 84 81 77 73 69 65 62 59 56 54 53 52 51 49 46 43 39 35 30 25 20 13 4 357 349 342 341 344 344 346 345 337 333 329 322 313 316 323 318 319 317 309 303 297 293
41 24 138 81 78 35 338 266 231 245 240 250 241 216 187 169 174 175 172 198 193 147 168 158 142 161 145 150 194 304 163 154 150 149 145 146 144 140 134 121 112 105 101 97 95 94 94 95 92 90 88 86 82 78 76 73 70 66 62 58 54 51 48 47 47 45 43 41 39 34 30 25 19 12 2 355 348 343 339 337 338 339 335 329 326 325 323 317 314 314 310 308 306 306 308 306 299
36 359 89 80 74 136 244 235 247 248 258 289 268 219 179 170 156 160 163 189 188 147 170 169 165 150 135 190 245 190 165 164 161 152 147 146 143 140 132 119 112 106 102 99 97 97 94 94 92 90 87 85 82 79 76 72 70 66 63 59 55 51 48 45 43 41 40 37 34 32 28 26 20 15 7 357 350 345 340 336 334 331 328 323 322 324 324 322 319 315 312 308 304 303 304 306 301
83 333 64 92 148 200 213 216 250 266 303 307 230 222 167 162 149 167 173 182 181 161 196 197 191 144 135 264 250 174 169 173 169 154 148 146 142 138 131 121 115 110 105 102 102 100 96 93 90 88 86 84 84 82 78 73 68 64 60 56 54 51 49 47 44 42 39 36 33 30 27 24 20 15 10 3 357 351 346 341 337 332 326 320 318 318 318 318 318 318 316 314 311 307 302 299 293
125 150 91 128 178 174 179 194 269 306 310 258 203 188 144 163 186 185 163 153 163 167 223 197 165 122 147 247 228 175 183 181 168 155 152 146 142 135 130 126 120 113 108 107 105 100 96 93 89 87 85 84 82 80 77 72 66 62 59 55 53 49 47 45 43 43 40 37 32 29 27 24 21 17 13 6 1 356 352 347 342 337 331 324 321 317 315 314 314 316 317 317 316 312 307 299 292
140 146 114 142 60 100 163 199 274 196 253 255 179 150 142 172 216 173 146 156 186 181 230 174 153 132 160 208 223 219 191 181 166 157 155 148 142 135 132 130 124 118 112 109 103 96 94 90 88 86 84 82 79 77 74 71 66 63 60 56 54 49 47 43 41 40 38 38 34 31 27 24 22 20 17 13 8 3 357 353 348 343 336 329 325 321 317 314 313 313 313 315 315 314 310 304 299
136 127 91 108 38 352 192 233 203 168 239 232 152 148 130 319 142 154 165 177 209 199 83 156 162 188 193 177 208 214 183 175 165 159 156 150 145 137 134 132 127 122 116 110 102 96 92 88 85 82 79 78 75 73 72 71 67 63 61 58 56 52 49 46 42 39 36 35 33 31 29 27 25 22 20 17 15 11 6 2 358 352 343 335 331 326 321 317 314 312 310 311 311 311 310 308 306
123 115 72 95 129 250 214 207 127 139 248 221 170 148 132 294 136 157 217 156 177 182 147 184 182 225 185 180 246 193 174 169 164 160 156 152 149 143 137 134 130 126 121 112 105 99 95 90 84 81 79 76 72 70 67 65 63 59 58 57 55 54 51 49 46 42 38 35 32 29 27 25 23 20 19 17 15 13 10 7 5 2 355 347 340 333 328 322 317 314 311 310 308 306 306 305 306
61 84 76 94 165 208 203 189 177 175 240 238 253 182 154 256 293 157 263 88 110 177 245 232 228 297 187 236 302 173 167 166 164 160 157 155 153 149 140 135 132 129 125 116 108 104 100 93 86 84 82 78 72 68 63 59 57 54 53 52 51 50 48 46 43 41 37 35 31 28 25 23 21 18 16 14 13 10 8 7 4 3 359 355 350 344 337 330 324 319 314 311 308 306 303 301 301
54 80 103 169 180 201 188 185 198 173 205 212 209 189 161 197 217 166 141 67 76 144 256 269 290 281 232 274 195 161 163 163 165 163 161 160 160 155 146 140 137 134 131 122 115 110 104 96 92 91 86 79 71 66 60 56 53 51 50 48 48 46 44 41 38 36 33 31 28 26 24 22 20 17 16 14 12 10 7 6 3 2 359 356 354 351 346 339 331 325 320 316 311 308 305 303 300
86 111 95 231 196 209 200 180 192 173 122 180 195 190 177 199 176 158 198 229 126 176 241 271 283 264 216 191 156 157 161 164 167 167 166 165 166 163 155 149 144 144 141 135 127 117 110 102 98 96 88 80 71 64 59 55 52 50 49 47 46 43 40 37 34 31 28 27 25 23 23 21 18 17 16 13 11 9 8 6 4 2 360 357 355 352 350 346 339 331 325 321 317 314 311 310 307
155 113 100 243 211 232 227 192 201 191 135 149 189 175 199 219 160 159 196 197 175 204 222 201 236 232 177 155 157 158 162 166 171 172 171 171 172 169 164 160 157 157 153 146 137 128 119 110 103 97 88 81 71 63 57 54 52 50 50 47 44 41 37 33 30 27 25 23 21 20 20 18 16 15 13 11 8 7 6 5 3 1 360 358 355 353 351 349 345 339 332 327 323 321 319 317 315
142 115 172 227 190 246 227 205 213 187 148 155 158 130 229 230 163 186 160 168 234 229 224 207 219 208 166 166 166 164 166 169 175 177 176 177 177 174 171 168 165 162 157 151 144 136 124 113 107 97 87 77 68 60 54 50 51 50 49 47 42 40 35 32 28 25 23 20 18 18 16 13 12 12 11 9 7 6 5 3 2 1 360 358 356 354 352 350 348 344 340 335 331 328 325 322 320
92 242 219 205 156 235 229 204 210 162 124 121 128 154 204 152 179 206 171 204 235 228 227 218 218 182 160 172 170 170 172 174 179 182 183 182 179 175 172 169 164 161 158 155 149 140 127 120 113 101 87 72 63 55 49 45 47 47 47 45 41 40 34 30 28 25 22 19 16 14 11 9 8 9 9 9 8 6 5 4 2 1 360 359 358 356 353 351 348 346 343 339 335 331 327 323 321
143 274 275 228 183 225 224 171 212 161 128 142 163 181 152 139 249 222 194 224 227 136 243 226 207 167 165 168 167 174 178 182 186 188 187 183 180 175 172 171 167 164 163 160 151 144 136 132 126 112 93 66 55 46 38 34 38 41 43 40 36 35 31 27 26 24 22 19 16 13 11 9 8 9 8 9 10 9 8 6 4 2 360 358 358 356 353 351 348 345 342 340 337 333 329 325 321
103 208 277 252 187 226 235 122 189 169 159 188 166 139 150 186 239 87 218 233 224 197 291 193 168 156 161 165 172 183 184 187 191 191 189 184 182 178 176 174 169 167 164 161 156 152 151 147 146 140 113 63 45 34 20 20 31 38 39 35 33 32 27 26 26 26 23 21 19 16 15 12 11 9 8 9 9 10 10 9 7 5 3 0 359 356 353 350 347 344 341 339 337 334 331 327 323
92 172 240 229 205 246 280 132 178 174 205 170 125 196 213 200 208 275 245 238 221 208 112 123 142 146 163 174 181 187 186 191 191 191 190 187 184 180 178 174 170 170 167 163 161 160 159 160 164 167 163 108 38 18 11 22 34 40 42 39 37 34 29 30 29 27 24 22 20 17 16 14 13 11 9 9 7 8 8 7 6 5 6 4 3 360 355 351 347 344 340 337 334 332 329 326 323
186 170 199 214 274 287 321 282 177 149 212 119 167 252 268 252 290 268 259 245 200 159 120 139 146 156 179 182 185 188 187 192 190 190 189 186 183 179 176 175 173 173 170 165 164 164 163 168 175 179 186 182 23 4 18 38 46 45 46 43 39 36 33 32 28 24 21 19 17 16 16 14 13 12 10 8 6 6 5 4 4 3 4 3 2 2 358 354 349 345 340 335 332 329 326 324 321
169 158 201 215 279 312 351 295 304 123 210 169 200 255 279 324 343 254 269 262 152 135 133 162 161 176 188 186 193 191 192 194 189 185 183 185 184 181 177 177 177 174 171 169 167 168 169 175 182 187 195 195 206 210 76 63 60 48 46 42 38 35 31 29 24 20 19 16 16 15 14 13 13 12 9 8 6 5 4 3 3 2 2 1 360 358 358 355 351 347 341 335 331 327 324 322 320
132 137 241 266 313 300 277 290 289 268 220 180 180 247 285 17 255 238 244 117 154 145 159 181 182 193 191 191 194 193 200 197 188 183 185 188 187 183 180 180 178 175 174 172 169 171 176 181 186 190 194 193 196 192 152 108 75 50 44 39 34 33 30 26 22 19 18 15 13 12 12 12 11 10 8 6 5 4 3 3 2 1 360 359 358 355 354 352 349 347 343 337 332 327 323 321 319
54 86 278 297 351 322 244 302 286 205 203 182 159 270 267 201 227 239 183 134 148 141 177 192 198 202 193 198 196 199 204 194 192 195 194 191 188 185 184 183 180 178 177 174 173 176 181 185 188 189 191 194 196 193 169 139 101 58 39 32 31 30 26 21 17 15 14 12 9 8 8 8 8 8 7 5 4 3 2 1 0 360 358 356 355 353 352 350 347 344 342 339 336 331 325 321 318
309 62 58 308 354 333 264 37 23 156 180 178 150 282 260 218 231 242 136 147 136 151 204 202 206 208 198 202 200 206 205 198 201 202 199 193 190 189 187 186 184 181 176 173 176 180 185 187 189 191 191 197 199 196 185 170 169 94 27 22 24 19 18 13 10 8 7 6 3 4 4 3 3 2 3 4 2 1 360 359 358 357 355 354 353 351 349 347 345 343 342 339 336 331 324 320 316
55 6 41 12 341 284 291 8 129 160 182 160 142 260 269 255 245 240 182 166 160 194 220 206 210 210 205 207 205 213 208 208 208 203 201 197 194 193 191 188 186 184 178 177 181 183 188 189 190 194 194 202 204 201 196 190 199 203 343 0 7 4 9 5 2 0 359 359 355 357 358 357 356 355 358 360 359 359 357 357 356 354 352 351 350 348 346 344 342 342 342 338 334 330 323 318 313
36 323 303 341 197 268 302 288 175 201 321 123 156 229 274 277 270 254 179 172 184 214 224 212 217 212 210 211 207 218 217 214 213 208 204 200 198 196 193 191 187 187 184 182 184 186 190 191 193 197 199 206 206 204 203 198 210 233 304 341 352 353 360 356 351 349 350 351 347 348 351 350 347 348 352 355 356 356 355 354 353 351 349 348 346 345 343 341 340 338 337 337 332 328 325 321 315
1 45 255 270 212 277 312 303 215 231 108 227 222 233 280 278 280 325 153 183 197 226 235 221 220 216 211 212 211 216 217 215 215 214 209 202 201 198 194 193 190 189 187 186 189 190 192 192 194 199 202 208 208 208 207 207 223 248 289 319 334 338 343 340 335 335 340 343 340 340 342 343 340 343 347 350 352 352 352 351 349 349 347 344 342 341 340 339 338 334 333 334 330 325 322 320 318
321 18 254 252 222 252 298 296 306 53 147 228 237 237 257 266 271 264 176 190 201 227 237 227 224 221 211 210 214 217 215 216 215 213 210 204 201 198 195 194 193 191 190 191 195 197 195 194 195 198 203 208 209 212 213 219 228 247 272 288 305 319 324 323 320 324 334 335 332 333 335 338 338 340 344 345 348 349 349 347 345 345 343 340 338 336 336 335 335 333 330 330 328 324 317 315 315
230 237 245 275 257 238 254 264 288 64 157 239 237 244 253 265 272 262 208 185 212 234 236 231 229 222 213 211 215 218 217 221 219 210 208 206 201 197 195 195 195 193 192 195 199 200 196 195 196 199 204 207 210 216 218 227 235 248 263 272 288 309 314 312 312 318 328 329 330 332 332 335 336 339 340 341 344 346 345 344 342 342 340 336 333 332 332 332 332 331 328 327 326 324 320 319 317
189 207 195 233 258 257 240 238 260 93 255 255 239 242 254 263 269 269 247 185 221 246 243 238 239 226 212 212 218 219 220 226 219 209 206 206 200 196 195 194 194 193 194 196 197 197 195 194 196 200 204 205 209 215 218 229 238 250 263 273 285 308 313 304 307 315 322 325 329 330 329 332 334 335 336 338 341 342 342 341 339 339 337 334 331 329 328 327 328 327 325 324 323 322 321 322 323
133 150 183 226 240 268 260 239 293 34 207 261 250 247 259 260 263 268 265 216 239 250 246 244 240 229 213 213 221 219 223 227 210 205 206 205 201 196 194 192 191 192 194 196 195 195 195 194 199 202 202 204 208 213 218 230 239 251 268 283 296 312 316 306 306 314 318 323 329 329 328 330 329 330 332 335 338 339 338 337 336 336 334 331 327 324 324 323 323 323 323 323 321 320 318 319 324
101 151 205 258 232 256 272 278 319 351 168 265 281 279 266 260 263 266 256 237 252 249 239 245 241 230 217 215 224 222 224 220 193 200 202 202 201 196 194 191 189 191 192 194 195 195 194 196 204 203 201 204 207 213 220 233 244 256 273 290 304 314 319 312 311 315 315 318 325 325 324 324 323 326 329 332 335 336 336 335 334 332 330 328 323 321 321 320 320 322 323 321 318 314 309 310 320
102 134 180 261 244 270 298 338 348 354 181 270 294 288 272 265 264 262 250 235 253 255 228 238 241 227 220 219 224 222 220 213 197 199 197 199 200 195 193 192 191 193 192 193 195 195 194 198 204 202 201 205 207 213 222 236 250 260 274 289 302 309 313 312 311 313 314 316 321 320 319 319 320 323 327 330 332 334 335 333 331 330 327 325 321 318 318 318 318 319 319 317 314 309 301 300 305
148 150 178 250 251 284 287 309 329 275 220 276 287 278 269 264 259 261 259 238 254 264 242 240 237 220 222 220 219 216 215 213 203 201 197 197 198 196 195 194 192 193 192 194 194 194 195 199 203 201 202 205 206 213 224 238 250 256 271 283 294 299 304 309 309 310 313 315 316 316 316 318 320 324 328 330 331 333 333 332 330 327 324 322 319 315 313 314 314 314 314 311 307 304 299 293 287
245 196 206 238 232 220 239 279 320 308 316 317 304 291 275 260 251 258 287 306 266 265 256 253 237 221 228 222 221 218 214 212 202 201 199 195 198 198 197 195 193 193 194 195 194 194 196 200 203 202 203 204 206 214 223 236 245 251 263 275 285 293 298 303 306 309 312 311 310 312 314 316 319 323 328 330 331 331 330 329 327 324 321 319 315 312 310 310 310 308 307 303 297 294 294 293 286
292 230 215 222 225 231 250 326 354 354 331 332 0 318 292 294 248 261 294 321 281 264 259 259 239 215 223 224 227 223 217 213 204 202 199 197 200 199 197 196 195 196 197 197 195 195 198 201 202 201 203 204 206 213 222 234 244 249 257 266 277 288 295 298 301 304 307 305 305 307 312 315 317 322 328 330 330 329 327 326 323 319 316 313 311 308 306 306 306 304 302 296 289 284 286 289 285
291 248 205 201 198 211 228 353 11 260 254 302 47 307 276 275 207 259 265 274 276 277 274 269 253 210 211 224 228 221 216 211 205 205 201 199 198 195 197 199 198 199 198 197 196 197 199 201 202 201 202 203 207 212 221 236 244 247 255 264 273 281 286 294 300 301 301 303 304 306 312 318 322 325 329 330 329 328 325 323 319 315 311 309 307 303 301 301 300 298 296 289 284 281 277 280 282
241 236 128 138 154 180 190 144 175 230 274 319 323 190 273 274 233 249 253 258 276 275 272 274 266 226 211 224 227 220 215 204 201 206 201 199 196 196 200 201 201 199 197 196 197 198 199 200 201 200 201 203 208 212 221 239 246 247 254 262 270 274 278 288 298 299 298 301 304 308 313 318 324 327 328 328 328 326 323 320 317 313 310 308 305 301 299 298 296 293 291 285 281 278 271 272 278
239 183 117 124 141 154 155 135 188 260 31 304 252 160 272 274 236 267 314 239 261 263 258 263 265 247 219 224 229 222 217 205 202 205 201 198 197 200 202 201 201 199 196 196 197 197 198 199 199 199 200 203 208 213 224 240 246 248 253 258 267 274 278 286 293 294 297 300 302 308 312 315 323 327 328 328 327 324 322 318 315 312 309 307 304 300 298 297 295 291 288 284 279 277 272 269 272
187 129 98 73 74 79 84 123 158 32 355 262 238 167 229 274 219 128 69 201 237 250 252 254 259 256 232 228 233 223 215 211 209 208 203 200 201 202 202 199 200 199 196 197 197 197 197 197 196 197 201 204 208 215 225 239 243 245 251 257 266 275 281 287 291 294 299 301 303 308 310 313 321 326 327 326 324 322 319 316 313 310 307 305 301 299 298 297 295 293 289 285 280 276 273 267 266
127 109 73 44 39 50 47 69 94 24 264 259 234 180 194 270 248 162 185 203 207 218 240 255 259 259 240 229 232 219 212 212 209 208 202 200 202 200 198 198 199 198 197 197 197 197 196 195 195 197 201 204 208 215 227 238 240 244 251 256 264 273 281 287 290 295 301 304 306 309 311 316 323 325 324 323 321 320 317 313 310 307 305 302 299 298 297 296 295 293 290 286 281 275 271 268 266
107 98 74 21 336 15 16 356 53 268 256 261 240 178 189 245 249 201 229 245 217 201 212 229 240 249 242 227 227 220 214 208 199 197 193 190 193 193 194 197 197 195 196 197 197 196 195 195 195 196 200 204 208 216 229 239 240 245 252 256 264 271 279 284 288 293 300 305 307 310 314 321 325 323 322 320 320 319 315 311 308 305 303 301 300 299 297 297 295 292 289 285 281 276 271 268 266
104 105 88 40 318 345 340 309 130 231 256 249 140 143 219 246 246 232 244 253 237 216 211 209 217 234 234 221 222 221 211 199 192 192 190 188 187 188 192 194 194 195 196 197 195 193 192 194 196 196 199 202 207 217 231 239 241 248 252 257 265 272 279 283 286 292 299 304 307 310 315 320 321 319 318 317 317 316 312 309 307 304 302 301 300 300 299 297 295 290 287 283 280 277 273 268 265
164 154 132 142 163 354 281 271 277 272 272 269 141 147 252 271 257 220 222 232 226 215 220 218 213 223 225 221 222 220 211 200 195 193 192 194 193 193 194 194 194 196 197 195 192 191 191 193 196 198 198 200 207 220 231 237 242 248 253 259 267 273 280 285 289 295 302 307 308 310 315 317 315 313 313 312 312 312 309 306 305 303 302 302 301 300 298 295 291 287 285 282 279 277 274 271 267
179 156 140 158 155 177 233 236 254 276 290 291 227 183 230 265 272 210 215 234 232 217 223 227 236 235 225 251 251 231 220 206 200 201 199 201 198 195 195 195 196 196 195 192 190 190 191 193 196 197 196 198 207 221 229 235 242 247 253 260 267 275 281 288 294 300 307 312 312 313 317 316 313 312 312 312 312 310 307 305 303 302 302 302 301 298 295 291 289 286 283 281 279 277 275 271 269
197 130 125 177 178 174 212 214 196 231 317 291 235 219 230 234 280 245 230 252 244 233 231 229 246 239 206 252 253 234 224 209 202 206 206 206 200 197 197 196 197 196 193 191 190 189 190 191 195 198 196 198 209 221 227 234 241 246 253 260 268 276 284 292 298 307 314 316 315 316 317 315 314 315 314 314 313 310 308 307 304 302 302 301 299 295 292 289 288 285 283 281 278 277 275 272 271
164 153 175 205 178 138 141 259 54 74 281 272 252 259 274 284 279 234 215 221 229 237 233 224 239 231 192 237 245 232 225 213 206 207 206 203 198 199 199 196 195 194 193 191 190 190 190 191 194 194 193 200 211 220 225 233 240 246 253 260 271 281 289 296 304 316 320 319 319 320 318 317 318 318 316 315 314 312 310 309 307 305 302 300 297 292 290 289 287 285 283 281 280 279 276 274 273
133 194 207 164 103 96 108 245 354 31 246 270 295 272 276 282 279 242 160 193 225 234 229 230 242 234 214 239 245 236 227 213 211 212 206 202 199 200 200 198 197 195 193 191 189 189 191 193 194 192 193 202 211 217 224 230 237 244 253 263 275 285 293 303 313 322 322 321 323 323 320 320 320 319 316 315 313 313 312 311 309 306 303 300 297 294 291 290 289 286 284 282 282 281 279 276 274
127 201 202 112 141 161 109 170 223 248 236 271 283 276 274 261 252 261 230 207 216 227 225 230 239 232 225 239 245 238 225 209 212 211 206 204 202 201 199 197 197 195 192 190 187 188 190 192 193 193 197 205 210 215 222 227 234 243 254 267 280 290 300 313 322 324 323 324 325 324 322 321 320 318 316 315 315 315 314 312 308 305 303 300 298 296 293 292 290 286 284 284 283 282 280 278 276
66 203 70 61 164 171 168 167 180 208 214 261 278 281 277 250 204 222 230 209 202 211 212 220 228 226 221 228 239 234 216 213 214 209 208 207 204 202 200 196 194 192 189 186 184 185 186 187 187 191 197 202 207 213 219 223 231 243 256 269 284 297 310 323 327 325 325 327 326 325 323 321 318 317 317 316 316 314 312 310 307 305 303 300 298 297 295 293 290 286 283 283 283 283 282 280 279
160 171 176 211 179 127 212 231 127 146 187 239 261 269 272 261 161 188 210 193 196 198 199 213 220 224 223 222 229 226 214 216 214 210 211 206 204 201 198 196 192 188 184 181 182 182 182 183 185 191 196 199 205 210 216 223 229 242 258 272 290 308 321 326 328 328 328 329 327 325 323 320 318 317 317 317 316 315 311 308 307 306 303 299 298 299 298 295 291 289 286 283 285 285 283 282 281
174 188 189 192 180 129 199 251 220 151 186 206 198 251 268 265 133 172 189 174 199 198 194 211 214 217 225 225 225 219 213 217 214 213 210 201 199 194 190 189 185 182 180 179 179 179 179 181 185 191 195 198 204 208 212 222 231 242 260 281 301 317 326 328 329 330 329 329 327 325 323 321 319 318 318 318 317 316 313 307 305 306 304 300 298 298 298 295 292 292 289 287 287 285 283 283 282
Height
815 815 815 815 815 815 817 818 828 839 842 855 863 860 855 852 854 852 852 853 852 853 854 853 854 854 853 851 852 857 861 858 857 861 857 859 864 861 863 861 861 860 859 859 857 857 855 855 855 854 853 851 850 850 849 848 848 847 847 846 846 846 846 845 845 845 845 845 844 844 844 844 843 844 843 843 843 843 843 844 844 844 844 844 844 844 844 844 845 845 845 844 844 843 843 842 842
815 815 815 816 816 815 821 823 833 846 846 855 862 858 854 853 854 848 847 849 849 853 855 855 855 855 855 854 855 856 860 861 860 860 859 861 862 861 862 860 861 859 858 858 857 856 855 855 855 854 853 852 851 850 849 849 848 847 847 847 846 846 845 845 845 845 844 844 844 844 844 843 843 843 843 843 843 843 843 843 843 843 844 843 843 844 844 843 843 844 844 844 843 843 842 842 841
815 816 816 815 817 817 824 825 835 848 846 851 854 854 854 850 849 844 846 848 850 854 855 854 853 855 856 855 855 854 857 861 860 860 861 861 861 862 861 860 860 858 859 857 857 856 855 855 854 854 853 852 851 850 850 849 849 848 847 847 847 846 845 845 845 845 844 845 844 844 844 843 843 843 843 842 842 842 842 842 842 842 842 842 842 843 843 843 843 842 842 843 843 843 842 841 841
815 815 816 816 819 820 825 830 839 843 844 854 852 848 849 845 845 847 848 849 852 853 853 853 853 856 855 853 855 856 858 860 859 859 860 861 861 861 860 860 859 859 858 857 857 856 855 855 854 854 853 852 851 851 850 849 849 848 848 847 847 846 846 846 845 845 844 844 844 843 843 843 843 843 843 842 842 841 841 841 841 841 841 841 841 841 842 842 842 842 842 842 841 841 841 841 841
815 815 816 815 821 823 828 840 846 840 840 851 847 844 846 844 847 850 851 851 852 852 852 853 852 856 855 854 857 855 855 858 858 858 860 860 861 860 860 859 859 859 858 858 857 855 855 854 854 853 853 852 851 851 850 850 849 848 848 847 847 847 846 846 845 845 844 844 843 843 843 842 842 842 842 841 841 841 840 840 840 840 840 840 840 840 840 841 841 841 841 841 840 840 840 840 840
815 815 815 815 821 823 828 839 842 839 840 843 839 840 843 844 847 848 852 852 852 852 852 852 851 853 855 856 857 855 855 857 857 858 859 860 861 860 860 859 859 858 858 858 856 856 855 854 854 853 853 852 851 851 850 849 849 848 848 847 847 846 846 846 845 845 845 844 843 843 842 842 842 841 841 840 840 840 840 840 840 839 839 839 839 839 839 839 840 840 840 839 839 839 838 838 838
814 815 818 818 824 826 829 835 838 839 841 843 838 837 841 844 847 847 851 852 851 852 851 851 850 849 851 855 856 856 855 856 856 857 858 859 860 859 859 859 858 858 858 858 857 856 855 855 854 853 853 852 851 850 850 849 849 848 848 847 847 846 846 846 845 845 845 844 844 843 843 842 841 841 840 840 839 839 839 839 839 838 838 838 838 838 838 838 838 838 838 838 837 837 837 837 836
813 817 822 822 828 834 837 839 841 842 843 847 843 840 841 843 846 847 849 848 847 849 849 850 851 846 848 855 854 855 856 855 857 856 858 858 859 859 859 859 858 858 858 857 857 856 855 854 854 853 853 852 852 851 850 849 849 848 847 847 847 846 846 845 845 845 844 844 843 843 842 842 841 841 840 839 839 839 838 838 838 837 838 837 837 836 836 837 837 837 836 836 835 835 835 835 835
813 817 823 824 831 839 844 845 845 846 845 845 842 841 842 843 846 845 846 847 845 847 847 850 851 845 848 856 855 855 856 855 856 856 857 858 858 858 858 858 858 858 857 857 856 855 855 854 854 853 852 852 851 851 850 849 849 848 848 847 847 846 846 845 845 844 844 843 843 842 842 841 841 840 839 839 838 838 837 837 837 836 836 836 836 835 835 835 835 835 834 834 834 834 834 833 833
815 818 824 828 835 840 844 844 844 845 842 841 839 839 841 844 845 843 844 845 845 845 848 852 850 848 850 854 855 855 855 855 856 856 857 857 858 858 858 858 858 858 857 857 856 856 855 854 854 853 853 852 851 851 850 850 849 848 848 847 847 846 846 845 845 844 844 843 843 842 842 841 840 840 839 838 837 837 837 836 836 835 835 834 834 834 834 834 834 834 833 833 833 832 832 832 832
818 822 825 830 836 838 838 838 840 841 840 840 837 835 839 843 843 843 844 843 846 846 849 852 847 850 854 854 855 854 854 855 855 855 856 856 857 858 858 858 858 857 856 857 856 856 855 854 854 853 852 851 851 850 850 849 849 848 848 847 847 846 846 845 845 844 844 843 843 842 842 841 840 840 839 838 837 837 836 836 835 834 833 833 833 832 832 832 833 832 832 832 831 831 831 830 830
820 826 826 830 836 836 838 837 836 838 838 838 833 832 839 843 840 839 842 841 845 847 848 847 843 847 853 854 853 852 854 854 855 855 856 856 857 858 858 858 857 857 856 856 856 856 855 854 854 853 852 852 851 850 849 849 848 848 847 847 847 846 846 845 845 844 844 843 843 842 842 841 841 840 839 838 837 837 836 836 835 834 833 832 832 831 831 831 831 831 831 831 830 829 829 829 828
820 828 825 830 845 845 844 841 839 841 838 834 829 833 839 839 836 834 839 841 844 846 843 844 844 844 848 853 852 852 853 852 855 855 855 856 856 857 857 858 857 857 856 856 856 856 855 854 854 853 852 851 851 850 849 849 848 848 847 847 846 846 846 845 845 844 844 843 842 842 841 841 840 840 839 838 838 837 837 836 835 835 834 833 832 831 831 830 830 830 830 829 829 828 827 826 826
820 827 824 835 856 853 846 841 841 843 834 829 830 836 839 836 836 835 837 839 842 842 839 842 845 842 845 850 850 850 850 851 854 854 855 856 856 857 857 857 857 856 856 856 856 855 855 854 853 853 852 851 850 850 849 848 848 847 847 847 846 846 845 845 844 844 843 843 842 842 841 841 840 840 839 838 838 837 836 836 835 835 834 833 832 831 831 830 829 828 828 827 826 826 825 824 824
821 827 828 838 853 850 845 842 843 843 833 828 832 835 836 837 840 838 835 834 837 841 841 843 843 840 840 841 841 844 846 849 852 853 854 855 856 857 857 857 856 856 856 856 856 855 855 854 853 852 852 851 850 849 849 848 848 847 847 846 846 845 845 845 844 844 843 842 842 842 841 841 840 839 839 838 837 836 836 835 835 834 833 833 832 831 830 829 828 827 826 825 824 823 823 822 822
822 824 829 835 844 845 842 845 848 845 833 829 835 835 832 836 841 838 838 837 837 842 842 841 842 839 838 837 837 840 843 847 850 852 853 854 856 856 856 857 855 856 856 856 856 855 855 854 853 852 851 851 850 849 848 848 848 847 847 846 846 845 845 845 844 844 843 843 842 841 841 840 839 839 838 838 837 836 835 834 834 833 833 832 831 830 829 828 827 826 825 823 822 821 820 820 819
821 821 828 832 841 843 837 842 842 835 828 831 836 834 829 834 839 839 840 840 838 841 842 841 842 840 840 839 838 839 842 846 849 850 852 853 854 855 855 855 855 856 856 856 855 854 854 853 853 852 851 850 849 849 848 848 847 847 847 846 846 845 845 844 844 843 843 842 842 841 840 839 839 838 837 837 836 835 834 834 833 832 831 830 829 828 827 826 825 824 823 822 821 819 818 818 817
820 825 830 830 838 836 828 831 832 828 824 827 833 832 829 830 835 838 838 839 840 842 842 841 840 840 840 838 838 840 842 844 847 848 850 851 852 853 854 854 854 855 855 855 854 854 853 852 852 851 850 850 849 849 848 848 847 847 847 846 846 845 845 844 843 843 842 842 841 840 839 838 838 837 837 836 835 834 833 833 832 831 830 829 828 826 825 824 823 822 821 820 819 818 817 816 815
823 829 830 828 832 829 824 825 826 827 823 826 831 833 831 827 831 836 834 835 839 839 839 840 839 837 838 838 839 840 841 843 844 846 847 849 850 851 852 853 853 853 854 853 853 852 852 851 851 850 850 849 849 848 848 847 847 847 846 846 845 845 844 843 843 842 841 841 840 839 838 838 837 836 835 835 834 833 832 831 830 829 828 827 826 825 824 822 822 821 819 818 817 816 816 815 814
825 829 826 825 826 824 826 825 823 825 825 826 830 833 833 829 832 834 831 833 838 834 830 834 834 831 835 838 839 839 841 842 843 845 846 847 848 849 849 850 851 851 851 851 851 851 850 850 849 849 849 849 848 848 848 847 847 847 846 846 845 845 844 843 842 842 841 840 839 839 838 837 836 836 835 834 833 831 830 830 828 827 826 825 824 823 822 820 820 819 818 817 816 815 815 814 813
825 826 821 824 828 824 822 823 822 825 828 826 828 833 832 831 834 833 831 832 832 828 823 822 821 823 832 837 838 838 839 841 842 843 844 845 845 846 846 847 848 849 849 849 849 849 849 849 848 848 848 848 848 848 848 847 847 846 846 845 845 844 844 843 843 842 841 840 839 839 838 837 836 835 834 833 832 830 829 828 826 825 824 823 821 820 819 818 818 817 816 815 815 814 813 813 812
824 824 823 827 830 822 819 824 824 827 829 827 829 830 828 832 834 831 831 825 818 818 817 816 815 819 827 831 834 836 838 839 840 840 841 842 842 843 844 846 847 847 847 848 848 848 848 848 848 848 848 848 848 847 847 846 846 845 845 845 844 844 843 843 842 842 841 840 840 839 838 837 836 835 834 833 832 830 829 827 826 824 822 821 819 818 817 816 815 815 814 814 813 812 812 811 811
822 823 826 827 829 822 819 824 825 826 826 824 826 826 828 831 828 829 830 818 811 814 816 815 817 820 824 827 831 833 834 835 835 836 836 838 839 840 842 843 844 845 846 846 847 847 847 847 846 847 847 847 847 846 846 845 845 844 844 844 844 843 843 843 842 841 841 840 840 839 838 837 836 835 834 833 831 830 829 828 826 824 822 820 818 817 815 814 813 813 812 811 811 811 810 809 809
823 822 823 825 829 823 820 824 825 826 822 822 828 826 827 826 824 830 825 811 812 816 817 817 817 820 824 826 829 828 829 830 831 833 834 835 837 838 840 841 842 843 843 844 845 845 845 845 845 845 845 846 845 845 845 845 844 844 844 843 843 843 843 842 842 842 841 840 840 839 838 836 835 834 833 831 830 829 828 827 826 825 823 821 819 817 815 813 812 811 810 809 809 808 808 807 806
823 822 823 826 828 822 822 825 824 826 824 826 829 823 823 825 828 828 814 807 812 815 816 818 819 821 824 824 826 827 828 829 830 832 833 834 836 838 838 839 840 841 841 842 843 843 843 843 844 844 844 845 845 844 845 844 844 844 843 843 843 843 843 842 842 842 841 840 839 838 837 836 835 833 832 831 829 828 827 826 825 823 822 821 819 817 815 813 811 810 809 807 807 806 805 804 804
821 822 823 824 823 821 823 823 822 826 826 827 825 820 823 828 830 819 803 805 810 813 816 817 819 821 822 822 823 824 825 827 828 830 831 833 835 836 837 837 838 839 840 840 841 841 841 842 842 843 843 843 843 844 844 844 844 843 843 843 843 843 842 842 842 841 840 839 839 838 837 836 834 833 832 831 829 828 826 825 823 822 821 819 818 817 815 813 811 810 808 806 805 804 803 802 801
823 824 824 823 823 823 825 822 823 826 825 826 823 819 823 828 830 811 798 808 811 811 816 817 818 818 819 820 821 822 823 823 825 827 830 831 832 832 834 835 836 837 838 839 839 839 839 840 841 842 842 842 842 843 843 843 843 843 842 842 842 842 842 841 841 840 839 839 839 838 837 835 834 832 831 830 829 827 826 824 823 821 820 819 817 816 815 813 812 810 808 806 805 803 802 801 799
824 825 823 824 824 824 825 823 824 825 822 825 823 822 825 830 828 805 798 812 812 810 814 817 817 816 818 819 820 821 821 822 824 826 826 826 827 829 831 832 833 835 836 836 836 837 838 839 840 840 841 841 842 842 842 842 842 842 841 841 841 841 841 840 840 839 839 838 838 837 836 834 833 831 830 829 828 826 825 823 822 821 819 818 817 815 814 812 810 809 808 806 805 803 801 800 798
826 826 821 820 821 819 822 824 825 824 821 824 825 822 821 824 814 797 803 814 812 812 812 816 817 816 818 818 819 820 820 822 823 822 821 823 825 827 828 830 831 832 834 835 834 836 837 838 839 839 840 841 841 841 841 840 840 841 840 840 840 840 840 839 839 838 838 838 837 836 835 833 832 830 829 828 827 825 824 823 821 820 819 817 816 814 813 810 809 807 805 804 803 801 800 798 797
826 828 825 822 820 817 821 826 827 824 822 824 825 819 806 806 803 796 808 814 811 812 811 815 817 816 818 817 818 818 818 819 818 818 819 822 823 825 827 828 830 831 832 833 833 835 836 837 838 838 839 840 840 840 839 839 839 839 839 839 839 839 838 838 838 837 837 836 836 835 834 833 831 829 828 826 825 824 823 822 821 819 818 817 815 814 812 810 808 805 804 802 800 799 798 796 795
826 828 830 833 826 817 820 827 826 821 824 825 824 822 802 793 796 797 809 812 808 807 807 813 815 815 817 816 817 815 815 815 814 817 818 819 821 823 825 826 828 829 830 830 832 834 834 836 836 837 838 838 838 838 838 839 839 838 838 838 838 837 837 837 836 836 836 835 834 834 832 832 830 829 827 825 824 823 822 821 819 818 817 815 814 812 811 809 807 805 803 801 798 797 795 794 793
830 825 823 836 833 821 820 825 827 820 823 826 823 822 807 793 793 798 809 812 809 805 804 811 813 814 814 813 815 813 813 814 815 816 816 817 818 820 822 823 825 826 827 829 830 832 833 834 834 835 836 836 837 837 837 838 838 838 837 837 836 836 836 836 836 835 835 834 833 832 831 831 829 828 826 823 822 821 820 819 818 816 815 814 812 811 810 808 806 804 802 800 798 796 794 792 790
833 831 820 827 830 826 822 822 830 826 823 825 822 819 807 794 793 802 812 812 809 806 803 807 809 810 811 811 811 811 811 813 813 813 813 815 816 818 820 821 823 824 826 827 828 830 830 832 833 834 834 835 835 836 836 837 837 837 836 836 836 835 835 835 835 834 833 832 831 831 830 829 828 826 824 822 820 818 817 816 815 814 813 812 811 809 808 806 805 803 801 800 797 795 792 790 788
828 836 827 826 828 828 823 818 827 830 825 824 822 821 810 794 791 799 808 810 809 805 800 802 804 806 807 808 809 808 809 809 808 808 810 812 814 816 818 819 821 823 825 826 827 828 829 830 831 832 833 833 834 834 835 836 836 836 835 836 835 835 835 834 834 833 831 831 830 829 828 828 826 825 823 821 819 816 815 814 813 812 811 810 809 808 807 805 804 802 799 798 796 794 791 789 786
819 826 824 825 829 830 826 820 824 826 825 824 824 822 812 800 792 791 799 808 805 797 796 797 797 801 803 805 806 805 806 804 802 804 807 810 811 814 815 817 819 820 822 823 825 826 827 829 830 831 832 832 833 833 834 834 835 835 835 835 834 834 833 833 832 831 830 829 828 828 826 826 825 823 821 819 817 814 812 811 810 810 809 808 807 806 805 803 802 800 798 796 794 793 790 788 785
817 822 823 822 824 825 824 822 826 827 825 823 822 819 811 803 795 787 791 803 801 793 794 795 794 796 800 802 802 802 802 799 799 803 806 807 809 810 812 814 815 817 819 820 822 824 825 827 828 829 830 830 831 832 833 833 833 834 834 833 833 832 832 831 830 829 828 827 826 826 825 824 823 821 820 817 815 812 810 809 808 808 807 806 805 804 803 801 800 798 796 794 791 790 788 787 784
822 824 826 827 828 824 820 822 828 830 825 816 814 817 813 804 796 788 789 797 796 790 791 792 790 791 794 797 797 797 797 795 798 802 803 805 806 808 809 811 813 814 816 818 819 821 822 824 825 826 827 828 830 830 831 831 832 832 831 831 831 830 830 829 828 827 826 825 825 824 823 822 820 819 817 815 813 810 808 807 806 805 804 804 803 802 801 799 798 796 794 791 789 787 785 785 784
824 825 827 829 833 826 819 825 830 831 828 817 813 816 811 802 794 787 789 792 784 778 784 784 782 785 790 792 792 792 792 793 797 799 800 802 803 805 807 808 809 810 812 814 816 818 819 821 822 824 825 827 828 829 829 829 829 829 829 829 828 827 827 826 826 825 824 823 822 822 821 820 818 817 815 813 811 808 806 805 803 803 802 801 800 799 798 797 796 794 791 789 787 785 784 783 784
826 830 831 828 830 826 820 829 834 833 829 818 815 817 804 794 790 780 780 783 772 766 774 774 773 779 784 785 785 787 790 791 793 794 796 798 799 801 803 804 805 806 808 811 812 814 816 818 820 821 823 824 825 826 827 827 827 827 827 827 826 825 825 824 823 823 822 821 820 820 819 818 816 814 812 810 808 805 804 802 801 800 799 799 797 796 795 794 793 791 790 788 785 783 782 781 783
826 829 828 822 826 825 816 824 833 832 830 824 821 817 797 784 782 772 771 776 769 765 768 768 769 772 773 776 779 781 783 785 787 790 792 794 796 798 798 799 801 803 805 807 809 811 813 815 816 818 820 822 823 824 824 825 825 825 825 824 824 823 822 822 821 820 820 819 818 818 817 816 814 812 810 807 805 803 801 799 798 797 797 796 795 794 792 791 790 789 788 788 786 783 780 780 780
827 828 824 817 820 821 818 825 831 828 829 831 822 798 775 775 777 767 770 776 770 767 767 764 766 768 769 771 773 774 775 777 781 785 787 789 791 791 793 795 798 800 801 802 805 807 809 812 814 816 818 819 820 821 822 822 822 822 822 822 822 821 820 820 819 818 818 817 816 815 814 813 811 809 807 805 802 800 799 798 796 795 794 794 793 791 789 788 787 787 786 786 786 784 779 777 777
824 821 817 815 815 818 823 829 829 822 820 829 825 794 766 770 773 765 769 771 763 764 762 756 760 766 768 769 767 768 770 772 776 778 781 783 785 788 791 793 794 795 797 799 802 805 807 809 811 813 815 817 818 819 819 819 820 820 820 820 819 819 818 817 817 816 815 815 813 812 811 809 808 806 804 802 800 798 797 796 795 793 792 791 790 789 787 786 785 784 785 784 783 783 780 776 773
821 817 818 821 821 822 826 828 825 820 819 826 829 813 785 769 762 758 763 763 755 756 754 746 751 760 763 764 762 764 767 769 772 774 776 778 781 785 787 788 789 790 793 797 800 803 805 807 809 811 812 814 815 816 817 817 817 817 817 817 817 816 816 814 814 814 813 812 810 808 807 806 805 803 801 800 798 796 795 794 793 791 790 789 788 786 784 783 783 782 782 782 781 781 780 775 770
816 823 826 823 823 824 824 825 824 824 830 830 825 825 809 781 767 760 758 761 758 756 753 745 745 751 756 758 759 760 762 764 767 769 770 773 776 779 780 781 784 786 791 794 797 799 802 804 806 808 810 811 813 813 814 814 814 814 814 814 814 814 814 812 812 811 810 809 807 805 804 803 801 800 799 797 796 795 793 792 791 789 787 786 785 783 782 781 780 779 779 780 778 777 777 773 768
815 832 834 827 826 826 826 826 827 832 838 826 819 830 818 780 767 770 768 768 763 754 749 741 739 744 748 752 754 757 758 760 762 763 764 768 770 772 774 778 782 785 788 790 793 796 799 801 803 805 807 808 810 811 811 811 811 812 812 812 811 811 811 810 809 808 807 806 804 802 801 800 798 797 795 794 793 792 791 790 788 787 785 784 782 780 779 778 777 776 776 776 775 773 772 770 766
823 837 836 833 834 834 834 830 827 834 834 814 808 823 811 768 751 766 775 771 760 748 742 739 738 742 745 747 749 753 756 757 758 759 760 763 765 768 772 776 780 782 785 788 791 794 796 798 800 802 804 805 806 807 808 808 809 809 809 809 809 808 808 807 806 804 804 803 801 799 798 796 794 793 792 791 791 790 788 787 785 784 782 781 780 778 776 775 773 772 771 770 770 768 767 766 762
831 832 826 827 833 837 840 836 831 828 814 796 796 807 805 775 750 755 760 752 744 738 736 738 736 736 739 742 745 748 752 753 755 757 759 761 764 767 771 774 776 779 783 786 788 790 792 794 796 798 800 802 803 804 805 806 806 806 807 806 806 805 804 804 803 801 801 799 798 796 794 793 791 789 789 788 788 787 785 784 782 781 780 778 777 775 773 771 769 768 766 765 764 763 761 760 757
830 822 817 817 823 827 830 831 831 819 793 788 805 814 810 784 751 747 747 740 738 733 726 727 726 726 730 736 741 745 748 751 753 756 758 761 763 766 769 770 773 777 779 781 784 786 789 790 793 795 797 799 800 801 802 803 803 803 804 803 803 802 801 801 800 799 798 796 794 793 791 788 787 786 786 785 784 783 782 780 779 778 777 775 773 772 769 767 765 763 762 760 759 757 756 755 751
825 818 819 820 820 821 816 814 819 811 790 795 818 818 802 772 742 741 745 736 736 735 727 722 720 720 723 730 737 741 747 750 751 754 755 757 760 761 763 765 769 772 773 776 779 782 785 786 789 791 793 795 797 798 799 799 800 800 800 800 800 799 799 798 797 796 795 793 791 790 787 785 784 783 783 782 781 780 779 777 776 774 773 771 769 767 765 763 762 759 757 755 753 752 750 749 746
823 814 814 816 819 822 813 808 813 805 788 798 820 811 784 755 731 731 733 724 724 730 730 726 722 721 722 729 737 740 745 749 749 751 752 753 755 756 758 761 763 766 768 772 775 777 780 782 785 787 789 792 793 794 796 796 797 797 798 798 797 797 796 795 794 793 791 790 788 787 785 783 782 781 780 779 778 777 776 774 773 771 769 767 765 763 761 759 758 755 752 750 747 746 745 743 740
821 812 811 809 808 808 799 794 795 789 783 798 815 799 765 736 719 719 721 719 722 726 728 729 729 729 731 734 738 740 742 746 748 749 749 749 750 752 755 757 759 762 765 768 771 773 776 778 781 783 786 788 790 791 792 793 794 795 795 795 794 794 793 792 791 790 788 786 785 784 782 781 780 778 777 775 774 773 772 770 769 767 765 763 761 759 757 755 753 751 747 744 741 740 739 737 734
819 818 812 807 799 793 795 803 805 805 802 796 794 777 746 726 719 720 722 722 724 724 726 730 728 730 736 736 734 736 739 743 746 746 746 746 748 750 752 754 756 759 762 764 766 768 771 774 777 780 783 785 787 788 789 790 791 792 792 792 792 791 790 789 788 786 784 783 782 781 780 779 777 775 773 771 770 769 768 766 764 763 761 759 757 755 753 750 748 746 742 739 736 734 733 730 728
812 816 803 802 802 792 794 810 822 827 812 783 772 761 735 722 718 715 719 722 722 723 724 726 722 725 734 732 729 732 735 739 742 742 742 744 746 748 749 751 753 754 757 759 761 763 767 770 773 776 779 781 783 785 786 787 788 789 789 789 789 788 787 786 784 782 781 780 779 778 777 776 774 772 770 768 766 765 764 762 759 758 756 754 752 750 748 746 744 741 737 734 731 729 727 724 722
802 803 794 799 806 800 798 804 811 819 809 779 763 752 732 724 720 712 719 724 719 720 722 720 720 725 729 726 725 728 731 735 738 739 740 741 743 744 745 746 748 749 752 754 756 761 764 767 770 772 775 777 780 781 782 784 785 785 786 786 786 785 783 782 780 778 778 777 776 776 774 773 771 769 767 765 763 761 759 757 755 753 751 749 747 745 743 741 739 735 732 730 727 724 722 717 716
798 796 796 796 794 796 804 805 797 798 802 781 756 746 729 715 711 705 708 713 710 713 719 719 718 721 724 722 722 725 729 733 735 736 738 738 738 739 740 742 744 746 749 751 754 758 761 764 767 769 772 774 776 778 779 781 782 782 783 782 782 781 780 778 777 775 775 774 773 772 771 769 768 766 764 761 759 757 754 753 751 749 746 744 742 740 738 736 734 730 727 724 722 720 717 712 711
805 801 802 797 790 791 795 799 793 783 787 777 758 747 715 685 691 694 691 699 702 703 710 713 713 714 718 719 718 720 725 727 730 731 733 733 733 735 736 738 740 743 746 749 752 755 758 761 764 766 769 771 773 775 776 778 779 779 779 779 778 778 776 774 774 773 772 771 770 769 767 766 765 763 761 758 756 753 751 749 747 744 742 739 737 734 733 731 728 725 722 719 716 715 712 708 706
797 795 796 796 794 797 795 795 794 782 778 776 770 754 705 667 678 683 681 692 696 696 702 703 705 709 713 716 714 716 720 722 725 727 727 728 729 732 735 737 740 743 746 748 749 752 755 758 761 763 766 768 770 772 773 774 776 776 776 776 775 774 772 771 771 770 769 768 767 766 765 764 762 760 757 755 752 750 748 745 743 740 738 735 732 730 728 726 723 720 717 715 712 710 708 704 702
777 778 779 780 781 791 791 787 791 790 778 766 766 755 703 667 676 679 679 690 691 695 700 696 698 702 704 710 712 713 716 717 720 721 721 724 726 729 733 736 740 742 743 746 747 750 752 755 758 761 763 765 767 769 771 772 773 773 773 773 771 770 770 769 768 767 766 765 764 763 762 760 758 756 754 752 749 747 745 742 739 736 734 731 728 726 724 722 720 716 713 711 708 706 703 700 698